Hourly Data Report for January 23, 2004

All times are specified in Local Standard Time (LST). Add 1 hour to adjust for Daylight Saving Time where and when it is observed.

SHERBROOKE A
QUEBEC

45°26'00.000" N
71°41'00.000" W
241.40 m
7028124
71610
YSC

Download Data

Hourly Data (January 2004)
Hourly Data Report for January 23, 2004
TIME Temp Definition
°C
Dew Point Temp Definition
°C
Rel Hum Definition
%
Wind Dir Definition
10's deg

Wind Spd Definition
km/h
Visibility Definition
km
Stn Press Definition
kPa
Hmdx Definition


Wind Chill Definition


Weather Definition


00:00 -14.9 -20.5 62 27 28 15.0 97.16   -26  
01:00 -16.2 -21.2 65 27 30 9.7 97.18   -28 Snow
02:00 -17.0 -21.6 67 24 22 3.9 97.28   -27  
03:00 -18.0 -21.8 72 27 39 2.4 97.30   -31  
04:00 -18.9 -23.1 69 25 28 4.8 97.36   -31 Snow
05:00 -19.1 -22.7 73 26 17 2.9 97.39   -29 Snow
06:00 -19.4 -23.0 73 26 28 2.9 97.43   -31  
07:00 -20.2 -24.3 70 27 24 12.9 97.43   -32  
08:00 -20.5 -24.2 72 26 17 19.3 97.51   -30 Mostly Cloudy
09:00 -20.5 -25.2 66 26 24 16.1 97.52   -32 Mostly Cloudy
10:00 -20.2 -26.2 59 25 26 9.7 97.55   -32 Snow Showers,Blowing Snow
11:00 -19.9 -27.1 53 25 20 12.9 97.55   -30 Mostly Cloudy
12:00 -19.8 -27.2 52 27 22 9.7 97.53   -31 Blowing Snow
13:00 -19.9 -27.1 53 26 24 9.7 97.50   -31 Blowing Snow
14:00 -19.6 -26.9 52 27 24 12.9 97.50   -31 Snow Showers
15:00 -19.8 -26.5 55 28 26 16.1 97.54   -32 Mostly Cloudy
16:00 -20.2 -27.6 52 27 24 19.3 97.58   -32 Mostly Cloudy
17:00 -21.2 -28.5 52 26 17 24.1 97.64   -31 Mainly Clear
18:00 -21.7 -28.3 55 25 11 15.0 97.71   -30  
19:00 -21.6 -27.9 57 25 17 15.0 97.74   -32  
20:00 -21.5 -28.4 54 25 15 15.0 97.72   -31  
21:00 -21.4 -28.1 55 25 17 11.3 97.70   -31  
22:00 -21.9 -28.4 56 26 19 15.0 97.69   -33  
23:00 -22.0 -28.7 55 26 17 15.0 97.67   -32  

Notes on Data Quality.

Legend

  • E = Estimated
  • M = Missing
  • NA = Not Available
Date modified: